Portada
METAR-TAF:

METAR-TAF

Aeroports :

Pontianak, Indonèsia

latitud: 00-09S, longitud: 109-24E, altitud: 3 m

Observació

L'informe es va fer fa 10 hores i 42 minuts, a les 11:30 UTC
Vent 4 kt del Sud/Sud-Est
Temperatura 30°C
Humitat 75%
Pressió 1010 hPa
Visibilitat: 6000 m
Núvols disperses a una alçada de 1200 ft

METAR: WIOO 251130Z 15004KT 6000 SCT012 30/25 Q1010 NOSIG

Hora: 05:12 (22:12 UTC)


TAF: manca

Observacions i pronòstics meteorològics de més de 4000 aeroports (METAR i TAF).

Les estacions disponibles són els punts grocs i vermells al mapa.

Posi el ratolí al punt desitjat per veure el nom de l'estació.

Feu clic per veure les observacions i els pronòstics meteorològics.

Per canviar el mapa: feu clic els botons verds amb una creu de color negre per apropar; al botó verd amb un guió per allunyar la imatge; o en les fletxes verdes per a mapes adjacents.


METAR-TAF: